Regional Weather Roundup
Issued by NWS Charleston, SC

Current Version | Previous Version | Text Only | Print | Product List | Glossary Off
Versions: 1 2 3 4 5 6 7 8 9 10 11 12 13 14 15 16 17 18 19 20 21 22 23 24 25 26 27 28 29 30 31 32 33 34 35 36 37 38 39 40 41 42 43 44 45 46 47 48 49 50

350
ASUS42 KCHS 052327
RWRCHS

REGIONAL WEATHER ROUNDUP
NATIONAL WEATHER SERVICE CHARLESTON SC
600 PM EST MON DEC 05 2016

NOTE: "FAIR" INDICATES FEW OR NO CLOUDS BELOW 12,000 FEET WITH NO
SIGNIFICANT WEATHER AND/OR OBSTRUCTIONS TO VISIBILITY.

NOT ALL STATIONS ARE QUALITY CONTROLLED. USE DATA WITH CAUTION...
ESPECIALLY DEWPOINT OBSERVATIONS.

SCZ027-030-031-034>040-042>050-060000-
...SOUTHEAST SOUTH CAROLINA...

CITY           SKY/WX    TMP DP  RH WIND       PRES   REMARKS
N CHARLESTON   RAIN      60  56  86 E6        29.95S
WATERFRONT PRK   N/A     59  58  97 E7        29.94S
MOUNT PLEASANT CLOUDY    59  57  94 CALM      29.96S FOG
JOHNS ISLAND   CLOUDY    59  57  94 NE6G12    29.95S
PINOPOLIS        N/A     59  55  88 NE7       29.87R
MONCKS CORNER  HVY RAIN  57  54  88 NE5       29.97R
SUMMERVILLE    HVY RAIN  55  55 100 N7        29.97R
BEAUFORT MCAS  RAIN      59  57  93 N6        29.94R
BEAUFORT ARPT  CLOUDY    59  57  94 NE8       29.94R
HILTON HEAD IS CLOUDY    61  61 100 N5        29.94  FOG
WALTERBORO     HVY RAIN  59 N/A N/A N6        29.98R
ALLENDALE      CLOUDY    55  55 100 VRB5      29.96R FOG

...SOUTHERN MIDLANDS AND PEE DEE...

CITY           SKY/WX    TMP DP  RH WIND       PRES   REMARKS
GEORGETOWN     CLOUDY    57  52  82 NE7       29.98
KINGSTREE      CLOUDY    55  50  82 CALM      29.99R
ORANGEBURG     LGT RAIN  55  52  89 NE5       30.00R
BARNWELL       NOT AVBL
AIKEN          CLOUDY    52  50  93 N8        30.01F
MANNING        CLOUDY    55  50  82 N3        30.00R
COLUMBIA       CLOUDY    58  51  78 SE3       30.00R
SUMTER         CLOUDY    56  50  80 CALM      29.98R
FLORENCE       CLOUDY    57  50  77 CALM      30.01R
MYRTLE BEACH   CLOUDY    59  50  72 VRB5      30.02R
N MYRTLE BEACH CLOUDY    57  54  89 CALM      30.01R

$$

GAZ063-065-086>088-099>101-113>116-118-119-134>141-150-060000-
...SOUTHEAST GEORGIA...

CITY           SKY/WX    TMP DP  RH WIND       PRES   REMARKS
SAVANNAH ARPT  FOG       61  59  93 N6        29.94R VSB 1
HUNTER AAF     CLOUDY    61  61 100 E5        29.90R
FORT STEWART   CLOUDY    61  59  94 CALM      29.89S FOG
STATESBORO     LGT RAIN  57  57 100 NE3       29.94S
SYLVANIA       HVY RAIN N/A N/A N/A NE7       29.94F
CLAXTON        CLOUDY   N/A N/A N/A N6        29.92S

...CSRA...CENTRAL AND FAR SOUTHEAST GEORGIA...

CITY           SKY/WX    TMP DP  RH WIND       PRES   REMARKS
THOMSON        CLOUDY    54  54 100 CALM      30.01S
AUGUSTA-BUSH   CLOUDY    57  54  89 NE5       29.97S
AUGUSTA-DANIEL CLOUDY    56  52  86 N5        29.97F
SWAINSBORO     DRIZZLE   55  54  94 NE6       29.94S
VIDALIA        RAIN      59  59 100 E3        29.93R
EASTMAN        RAIN      57  57 100 CALM      29.94S
HAZLEHURST     RAIN      60  60 100 N3        29.90R
ALMA           LGT RAIN  61  61 100 CALM      29.89R FOG
WAYCROSS       RAIN      68  68 100 E5        29.89R
JESUP          LGT RAIN  64  64 100 E6        29.90S VSB 1/2
BAXLEY         RAIN      61  61 100 NE6       29.90R
BRUNSWICK      CLOUDY    64  64 100 NE6       29.90S FOG
SAINT SIMONS   CLOUDY    65  64  97 NE6       29.89R FOG

$$

SCZ027-028-034-036>038-045-046-048>050-GAZ119-141-060000-
...LAKE AND SUPPLEMENTAL COASTAL OBSERVATIONS...

STATION/POSITION TIME  TEMP    WIND        PRES    WAVE   SWELL
                       AIR SEA DIR/SP/G            HT/PER HT/PER/DIR
                 (UTC) (F)     (DEG/KT/KT) (MB)    (FT/S) (FT/S/D)
WINYAH BAY       2245   58      70/  9     1015.0S
LAKE MURRAY      2230   57      CALM  /  2 1014.9R
ACE BASIN NERRS  2245   58      50/  3     1013.0F
FORT PULASKI     2300   60 62   60/ 10/ 13 1013.8
SAPELO ISLAND    2300   63      50/  5     1012.0

$$

ANZ835-935-AMZ111-154-330-350-352-354-370-450-454-472-060000-
...C-MAN AND BUOY OBSERVATIONS...

STATION/POSITION TIME  TEMP    WIND        PRES    WAVE   SWELL
                       AIR SEA DIR/SP/G            HT/PER HT/PER/DIR
                 (UTC) (F)     (DEG/KT/KT) (MB)    (FT/S) (FT/S/D)
BUOY 41004       2250   65 73   40/ 14/ 16 1013.6F   4/ 7   2/180/ 7
BUOY 41008       2250   65 65   30/  6/  6 1012.2S   3/ 6   2/160/ 6
FOLLY BEACH CMAN 2300   59      60/ 15/ 17 1014.3F
CAPERS NEARSHORE 2208   59 62   60/ 10/ 14 1014.3R
FRIPP NEARSHORE  2308   60 62   70/ 12/ 16 1013.9R


STATION/POSITION TIME  TEMP    WIND        PRES    WAVE   SWELL
                       AIR SEA DIR/SP/G            HT/PER HT/PER/DIR
                 (UTC) (F)     (DEG/KT/KT) (MB)    (FT/S) (FT/S/D)
5E ST. MARYS GA  2300      66                N/A     2/ 6
FRYING PAN BUOY  2310   64 74   60/ 16/ 19 1015.5
BUOY 41025       2250   57 71   20/ 19/ 23 1016.1R   5/ 8   3/180/ 8
CAPE LOOKOUT NC  2300   56      30/ 15/ 16 1016.4R
BUOY 41002       2250   73 74  200/ 16/ 19 1015.1R   6/ 7   2/ 30/11
BUOY 41010       NOT AVBL
ST AUGUSTINE FL  2300   70 69  170/  7/  8 1012.8R


$$




USA.gov is the U.S. government's official web portal to all federal, state and local government web resources and services.